Theta_e
340 348 353 352 350 349 349 349 349 349 351 350 349 349 350 349 345 340 338 338 338 340 343 345 346 346 347 348 350 350 351 348 348 348 348 348 347 345 346 349 351 351 355
343 348 353 352 351 350 349 349 349 348 348 349 349 348 348 343 338 337 337 337 336 336 338 339 341 341 344 345 346 347 348 348 350 349 349 349 349 343 343 344 350 348 350
345 350 351 353 352 351 350 348 347 348 349 349 348 347 342 337 336 336 336 337 337 337 336 335 335 337 337 339 341 342 345 346 348 349 349 344 343 344 342 345 347 349 351
348 352 353 353 353 350 350 347 348 349 348 346 347 344 337 335 334 334 335 335 336 336 337 337 336 335 335 338 339 340 340 342 345 348 346 339 340 346 341 344 348 348 351
348 351 356 353 352 351 349 349 349 347 346 344 342 341 337 335 334 334 334 335 335 335 336 337 337 335 336 337 338 341 342 340 342 344 343 344 342 343 342 346 348 350 352
346 350 354 353 352 351 350 347 343 340 339 338 337 338 336 335 337 336 334 334 335 336 335 336 336 336 336 336 338 339 344 343 340 337 339 343 344 345 343 346 347 349 353
348 350 352 353 352 351 347 343 339 338 337 339 341 338 338 339 337 335 334 334 335 336 336 335 336 336 336 335 336 339 341 341 339 337 339 342 344 345 346 350 350 350 356
347 347 347 352 352 348 343 340 338 337 337 337 338 339 338 338 337 337 336 336 336 335 335 335 335 334 334 334 336 337 337 336 338 337 338 341 346 347 346 349 350 349 349
344 341 342 345 349 344 341 338 337 336 335 334 333 334 334 336 336 334 333 334 334 334 333 333 333 333 333 332 334 335 335 332 330 335 336 341 344 344 344 345 346 346 345
334 332 336 340 342 342 340 337 336 335 335 333 330 328 328 332 330 329 331 333 331 331 331 330 331 331 331 331 330 332 333 332 328 328 337 340 340 339 339 340 342 343 343
328 330 333 337 340 340 339 338 335 333 331 329 327 326 330 330 330 329 331 330 329 328 328 328 327 328 328 330 328 328 332 328 327 328 329 340 336 335 337 336 337 337 338
327 326 329 336 338 338 339 339 336 333 332 331 331 330 327 331 330 328 328 325 324 326 325 325 324 325 327 325 328 329 329 328 327 329 330 339 334 333 334 336 336 336 337
325 330 329 336 341 339 339 340 336 335 334 333 332 332 331 329 328 328 327 326 327 325 325 324 323 323 325 326 326 328 328 328 328 328 330 336 334 333 334 334 334 334 335
325 326 326 331 340 342 343 338 337 335 333 331 331 331 328 326 326 326 326 325 325 325 324 324 323 324 325 327 326 327 327 328 328 329 330 333 334 333 332 333 333 333 334
324 324 326 330 337 343 341 339 337 336 332 333 332 332 328 325 325 325 326 325 325 323 322 322 322 323 323 324 325 326 327 329 330 328 331 337 334 332 331 332 332 332 333
326 325 328 328 334 334 335 336 336 336 334 335 331 331 330 328 328 325 325 324 323 323 323 322 322 322 322 322 323 325 328 330 330 333 332 336 333 331 331 331 332 332 332
329 328 329 327 329 332 332 333 335 335 333 334 332 333 330 330 330 329 326 324 323 324 323 322 322 322 322 323 323 325 328 332 334 334 331 331 332 330 327 327 329 331 331
330 330 330 328 328 331 334 334 333 335 334 335 335 333 330 329 330 329 326 325 325 324 323 321 321 320 321 324 325 326 330 332 333 333 333 330 329 328 327 325 327 329 330
331 331 331 329 326 328 333 333 333 334 331 335 333 333 331 329 328 330 327 327 327 323 323 322 321 322 320 322 323 327 327 327 328 327 327 327 327 326 326 329 326 326 328
332 333 333 332 330 330 333 333 331 330 331 332 331 331 332 331 329 330 328 329 326 323 322 324 323 322 320 320 320 324 325 326 326 325 325 324 325 325 325 327 327 327 329
332 332 329 330 329 329 328 325 326 327 330 329 331 332 331 330 330 331 328 328 327 324 325 325 323 322 319 320 318 318 321 324 323 323 324 324 323 323 324 325 326 326 327
332 331 328 326 326 327 328 328 327 329 328 329 331 333 333 332 331 331 331 328 328 324 325 325 325 320 320 321 315 316 313 317 320 319 321 321 322 321 321 323 325 327 328
333 331 331 329 328 329 331 330 330 331 331 328 329 330 332 332 332 331 331 330 329 327 323 325 324 323 317 321 322 316 311 309 314 321 321 320 321 321 322 323 324 326 328
334 334 336 337 335 330 333 331 331 326 324 326 328 331 332 332 332 331 331 330 330 327 327 325 323 324 322 318 320 324 323 319 312 311 319 321 322 322 323 322 322 325 327
336 333 338 340 336 334 333 333 330 330 329 329 329 330 333 333 333 331 330 330 329 328 328 328 327 325 323 321 318 318 320 318 319 314 311 315 319 321 322 322 322 323 326
336 334 339 339 338 337 335 333 333 331 330 328 329 326 327 329 331 332 329 330 331 330 329 328 329 328 326 325 323 322 319 316 316 315 313 316 316 320 322 322 323 323 322
Wind_Speed
6 11 8 6 4 3 2 1 2 1 4 5 4 5 6 8 9 10 11 11 10 9 9 10 9 8 9 9 9 8 7 5 6 5 4 3 0 1 1 2 5 13 6
9 9 9 7 6 4 2 1 2 4 5 4 5 5 6 8 9 10 12 12 12 11 10 10 9 10 10 10 9 9 7 7 7 6 7 9 7 2 2 3 6 7 4
8 9 12 8 6 5 3 2 1 3 3 5 4 5 7 8 9 11 12 12 13 12 11 10 9 8 8 8 9 9 9 8 8 9 9 12 5 7 1 4 5 7 6
8 7 9 9 7 5 4 2 3 6 5 4 5 6 6 6 7 8 9 10 11 11 11 11 10 9 9 9 9 8 8 8 8 9 11 11 8 11 3 6 7 7 8
6 6 10 8 7 6 5 7 8 7 6 5 4 4 4 5 6 6 7 9 10 10 11 12 11 11 11 10 11 11 9 8 8 11 14 8 6 5 2 7 10 10 10
6 6 12 7 6 7 9 9 9 8 7 6 5 2 3 5 6 6 5 8 9 10 10 11 10 11 11 12 12 13 12 7 9 15 5 3 7 7 5 9 11 12 12
3 4 14 6 7 9 10 10 9 9 8 9 11 4 4 7 8 8 5 8 9 11 11 11 11 11 11 11 11 11 8 6 12 8 4 4 2 8 9 10 11 12 12
3 1 8 9 8 11 10 10 9 10 10 9 10 10 8 8 9 9 9 10 11 11 11 11 10 10 11 11 10 9 9 12 13 3 7 4 11 6 4 8 3 1 2
2 2 6 8 12 10 9 9 10 10 9 9 9 7 6 6 6 7 7 9 10 10 11 12 12 12 11 10 10 9 8 11 14 4 7 9 10 7 6 7 8 7 5
3 1 2 4 10 11 14 8 9 8 8 7 6 5 2 4 1 3 6 10 9 9 10 11 12 13 13 11 8 8 8 13 12 7 2 9 9 6 8 9 9 8 6
5 3 3 1 4 3 8 10 11 8 6 5 3 2 7 4 4 2 8 6 7 9 9 11 13 14 14 15 6 6 10 5 7 4 5 11 4 5 7 8 8 9 9
1 1 4 2 4 5 3 4 2 4 6 6 7 7 5 5 6 6 2 1 1 7 6 9 9 12 13 7 4 8 5 6 5 3 2 9 4 5 7 7 8 8 8
3 2 2 4 4 3 4 2 1 2 2 4 6 6 5 4 5 4 4 5 6 6 7 9 8 7 10 8 6 5 6 6 4 4 9 6 1 4 5 7 8 8 8
3 3 4 4 6 3 1 3 2 1 2 3 5 6 4 4 4 5 5 6 5 6 8 7 6 8 8 8 8 8 8 6 5 4 7 8 3 3 5 6 8 8 8
4 4 6 4 3 2 5 1 1 1 0 3 3 7 6 6 5 6 5 5 5 6 7 7 7 7 8 7 7 7 8 7 7 6 1 10 6 4 3 5 7 8 9
3 5 6 5 5 5 2 2 2 1 2 1 4 6 6 5 6 6 6 6 7 7 7 7 8 7 7 7 7 5 6 6 5 4 4 9 6 4 5 6 7 8 9
6 5 5 3 3 2 3 3 1 2 1 1 3 4 6 6 6 7 5 6 7 6 8 6 6 6 6 5 4 4 5 3 1 3 5 5 9 11 3 4 8 10 10
5 7 4 2 4 3 2 1 2 1 2 1 2 3 4 4 5 5 6 6 7 5 6 7 7 7 7 5 4 3 2 2 0 3 2 6 5 7 4 4 7 10 11
9 8 6 4 3 3 3 3 2 1 5 2 3 3 3 4 5 6 5 6 7 5 6 7 8 7 7 6 4 2 3 3 3 3 5 6 5 7 7 8 8 11 10
11 9 8 4 3 2 2 4 2 5 5 4 4 3 3 3 4 5 5 6 7 6 6 7 8 7 5 6 6 2 3 3 4 4 6 6 5 7 8 8 9 8 10
13 13 9 6 5 4 4 4 4 4 3 5 4 5 5 5 4 4 6 5 6 5 6 7 7 6 6 8 5 4 4 5 6 7 7 7 8 9 9 8 7 6 6
15 12 11 12 10 6 5 4 4 3 4 5 4 4 6 6 6 5 5 5 5 6 4 7 7 7 5 5 7 6 3 5 4 4 6 6 7 8 9 9 9 9 8
18 16 15 12 8 8 9 5 5 4 6 5 5 5 5 6 6 6 6 5 5 6 6 5 6 6 7 4 4 6 6 6 8 1 3 5 7 7 8 8 9 9 9
18 16 15 11 10 8 9 6 5 5 5 4 4 3 5 4 6 6 6 6 5 6 5 5 4 7 5 7 5 1 2 6 7 7 4 5 6 7 7 7 8 9 8
15 15 11 10 9 9 8 6 5 5 3 3 3 2 3 4 6 6 5 6 6 7 5 6 7 6 7 6 7 6 6 7 6 7 10 9 8 5 7 8 7 9 9
12 15 10 10 10 10 9 7 7 4 4 4 3 4 3 3 3 3 5 5 6 7 8 7 7 9 8 8 9 8 8 8 8 9 11 12 13 10 7 8 8 8 8
Wind_Direction
153 115 147 142 138 128 106 94 75 354 2 47 53 55 58 54 46 39 30 25 16 8 5 0 6 3 353 350 356 359 349 329 320 321 322 312 351 41 322 240 249 235 127
118 125 147 155 157 154 150 83 27 4 10 31 57 61 61 57 53 42 34 30 25 17 9 3 360 353 349 349 347 341 335 331 312 302 299 258 218 151 302 251 251 291 24
122 138 162 160 160 152 145 104 66 72 48 35 81 78 73 61 46 40 36 34 30 30 29 21 11 3 349 335 330 325 319 318 310 301 286 263 194 140 276 276 251 261 263
133 137 133 147 147 146 128 101 83 69 61 61 80 91 83 76 61 50 43 32 23 16 11 14 9 8 4 358 345 324 308 304 302 293 260 242 255 131 215 272 275 272 261
146 114 106 140 143 135 119 97 91 83 70 62 66 84 86 64 47 38 32 26 19 9 12 11 23 13 5 0 352 341 313 284 277 264 258 260 251 117 132 288 267 242 244
134 135 114 136 137 116 115 104 89 70 50 30 3 356 48 33 12 358 13 13 10 15 9 9 7 3 358 352 348 345 335 262 267 250 216 266 278 30 346 291 282 281 279
143 134 123 138 128 124 116 102 82 64 45 36 27 49 47 12 6 5 15 9 18 5 3 356 357 357 355 350 350 350 2 312 272 273 307 222 294 14 299 285 270 275 272
94 37 119 130 132 123 114 97 81 64 57 48 44 43 43 31 39 34 32 17 12 0 0 359 359 355 352 347 347 341 335 321 264 308 264 277 71 354 36 14 19 32 175
118 135 131 138 119 116 105 97 78 69 71 63 53 45 39 45 47 37 28 23 11 8 5 356 351 347 345 344 345 341 330 313 295 25 301 77 49 35 35 28 41 41 44
87 21 260 211 147 178 144 94 85 78 72 58 49 36 353 154 116 60 330 49 22 11 3 354 344 337 329 321 330 338 312 276 272 322 286 71 46 38 46 38 30 25 11
56 10 25 336 141 176 105 119 143 126 126 170 147 60 249 22 18 336 65 28 20 7 354 349 340 330 314 275 255 304 282 285 327 347 296 82 40 35 29 24 21 15 6
199 91 24 303 158 159 143 136 117 80 44 33 28 8 8 19 14 327 88 78 338 352 307 339 330 308 272 327 288 224 280 316 298 324 20 67 2 19 29 34 24 12 5
115 100 102 159 204 246 125 169 154 62 47 94 46 10 49 351 4 7 346 5 352 17 360 342 339 343 340 327 317 314 310 282 295 294 93 76 3 23 31 21 11 1 353
168 132 161 114 175 227 257 216 114 267 14 38 62 11 33 16 12 354 8 355 355 2 352 350 345 345 325 319 305 308 297 299 307 306 115 114 110 59 24 7 357 353 348
174 138 122 118 114 173 223 151 230 277 17 45 35 55 25 24 13 9 12 2 4 354 356 350 355 348 333 316 308 312 308 306 309 290 305 92 95 69 18 352 346 342 335
161 142 98 143 149 164 209 244 268 223 113 308 42 37 53 28 18 23 17 6 4 357 356 349 355 339 334 326 306 303 293 299 296 291 277 126 118 65 10 343 335 332 326
154 116 133 132 136 211 173 212 245 217 145 354 43 62 36 23 46 346 21 8 6 353 350 354 351 344 346 330 319 291 287 282 302 289 273 309 150 164 152 326 331 324 321
141 137 158 123 134 162 121 252 277 162 252 282 337 2 10 36 36 357 11 19 357 347 3 359 2 352 2 345 3 344 317 276 203 231 289 309 342 320 288 146 324 309 308
151 144 163 145 150 158 157 257 251 288 251 260 282 296 6 357 16 340 16 18 336 351 10 2 1 3 3 347 332 354 341 322 286 326 322 309 298 298 318 306 286 284 274
150 149 150 157 131 176 244 250 278 258 258 260 263 261 264 322 352 332 358 1 333 353 1 2 354 0 1 357 313 322 307 291 289 295 309 288 311 311 299 315 305 291 198
164 151 142 143 161 187 228 258 237 264 262 247 254 259 269 287 299 318 327 346 341 6 355 353 348 356 6 2 310 321 275 223 259 312 287 286 303 300 310 294 286 299 289
178 154 171 175 171 180 172 206 262 301 281 299 289 272 265 265 281 279 314 324 10 339 5 356 353 338 4 28 342 295 339 171 180 299 305 295 298 307 303 301 306 287 282
186 178 184 181 168 176 178 191 216 247 235 236 224 235 230 247 272 275 283 300 317 293 2 336 359 349 335 346 15 345 330 6 323 64 234 309 325 314 318 304 288 283 278
187 197 191 168 171 181 184 194 222 287 305 353 284 322 293 262 278 276 264 273 292 321 322 325 344 321 310 331 328 272 280 320 330 310 308 281 253 293 304 302 301 285 274
182 201 194 174 171 174 187 220 210 233 266 286 296 296 268 273 276 275 258 271 282 287 332 302 299 306 304 313 316 320 313 284 247 269 300 305 297 301 306 288 311 288 276
178 197 178 177 179 186 190 197 222 240 266 301 318 312 290 296 302 228 277 270 284 290 279 290 299 282 281 296 299 298 288 295 299 300 298 303 309 301 296 298 285 282 277